GFSCGP_925_temp_057.txt.gz
Temp
16 16 15 16 15 18 17 17 17 18 19 18 16 16 18 15 12 12 12 11 11 11 12 12 12 12 11 11 10 10 9 10 11 11 11 11 11 11 11 11 12 12 12 11
15 15 16 17 16 17 17 18 16 16 17 16 16 15 15 15 14 14 15 14 12 12 8 9 11 10 10 10 10 9 9 10 10 11 10 10 10 9 10 10 10 11 11 10
15 18 16 17 16 16 16 15 16 17 17 15 16 15 15 16 15 14 14 16 15 14 11 9 7 9 9 9 9 9 9 9 9 9 9 10 8 8 8 8 9 9 10 10
15 16 17 16 16 16 15 15 16 17 17 15 16 16 17 16 16 15 16 15 15 14 11 9 8 7 8 9 9 9 9 9 9 9 9 10 9 6 6 8 8 8 9 9
16 15 16 15 16 16 16 16 15 17 15 16 15 14 17 16 16 16 18 16 16 15 11 9 9 8 8 9 9 9 9 8 9 9 9 9 7 8 7 7 7 7 8 8
16 16 15 16 16 16 15 16 14 11 12 13 17 14 19 16 18 18 18 17 14 11 9 9 9 8 7 8 8 8 7 8 8 8 8 8 9 7 6 6 6 6 7 8
15 15 16 16 16 15 17 16 14 13 11 15 12 13 20 17 17 17 18 17 14 10 7 6 6 6 6 7 7 7 7 7 8 8 8 8 8 8 8 8 7 6 6 6
16 16 15 14 18 16 15 15 13 13 12 13 12 12 15 14 16 14 13 13 12 8 6 6 6 6 5 6 7 7 7 7 7 8 7 8 8 7 7 7 7 7 7 7
14 15 15 14 16 18 14 14 16 16 4 9 15 14 15 14 13 13 13 12 9 8 6 5 5 6 5 6 7 7 7 7 7 8 7 7 7 6 7 6 7 7 7 6
16 15 13 14 16 14 15 14 14 11 12 10 14 13 16 17 16 14 14 12 9 7 5 4 4 5 5 6 6 7 7 7 7 7 7 7 6 6 7 6 7 6 6 6
16 15 13 14 13 13 14 13 14 13 11 11 10 16 13 17 16 17 15 13 10 7 5 4 4 4 5 5 6 6 7 7 7 7 7 6 6 6 6 6 6 6 6 5
14 14 11 12 13 12 15 14 14 13 11 10 10 18 15 14 14 14 15 14 10 7 5 3 3 3 4 4 5 6 6 6 7 7 6 6 6 5 5 5 5 5 5 5
14 13 10 12 12 12 12 13 15 13 10 12 13 18 12 13 13 13 13 14 9 6 4 3 2 3 3 3 4 4 5 5 6 7 6 5 4 4 4 5 5 4 4 4
15 12 12 15 15 13 12 12 13 15 14 15 16 18 18 17 14 15 13 11 8 6 5 4 3 3 3 3 3 3 4 5 5 5 5 4 4 5 5 5 4 4 4 4
14 10 12 14 14 13 12 12 13 14 16 15 18 17 19 18 14 16 14 12 8 6 5 5 4 4 3 3 3 3 3 4 4 4 3 3 4 4 4 4 4 3 3 3
12 11 11 12 13 12 12 12 12 14 15 16 17 17 18 18 15 15 14 12 9 8 7 6 5 4 4 4 3 3 3 3 3 3 2 2 3 2 3 3 3 3 2 2
11 11 11 13 13 12 12 13 14 14 15 16 15 17 16 17 15 15 14 11 10 10 9 7 6 5 5 4 4 3 3 2 2 2 2 2 2 2 3 3 2 2 2 1
9 11 11 13 12 13 14 16 15 15 15 15 15 16 15 15 15 13 12 12 10 10 9 7 6 6 5 5 4 3 3 2 2 1 1 1 2 2 2 2 2 2 1 1
11 11 12 13 13 14 13 12 12 13 14 16 14 15 16 14 11 14 10 10 12 9 9 9 8 7 5 5 4 3 2 1 1 0 0 1 2 1 1 1 1 1 0 0
10 11 11 10 12 14 14 13 10 13 14 16 14 15 14 12 12 15 13 8 7 7 7 7 8 7 5 4 3 2 0 0 0 0 1 2 2 1 1 0 -0 0 0 1
8 10 12 11 12 11 8 6 10 13 14 4 8 13 12 11 12 7 6 8 4 5 5 6 6 4 3 3 2 1 -0 -0 1 1 1 1 0 0 -0 -0 0 0 -0 -1
10 10 11 11 12 12 7 9 12 9 7 4 7 8 8 7 8 6 5 4 4 3 2 3 2 2 2 3 2 0 0 1 1 1 1 0 0 -0 -0 0 0 -2 -3 -2
9 9 9 10 11 10 7 8 7 6 5 7 7 7 6 6 6 5 3 2 1 1 1 2 1 1 1 2 2 1 1 1 2 2 1 1 -0 -1 -1 -1 -2 -4 -3 -3
5 7 7 9 9 7 6 5 5 5 7 6 5 6 5 7 4 4 2 1 -0 -3 -2 0 1 -1 -1 1 2 3 2 2 2 1 0 -1 -1 -2 -3 -3 -3 -3 -3 -4
4 5 5 6 7 6 5 3 4 4 4 4 4 5 5 4 4 2 -1 -3 -3 -3 -1 0 -1 -2 -2 1 2 2 2 2 1 1 -0 -1 -1 -2 -2 -2 -2 -2 -2 -3
3 5 7 7 5 6 6 4 3 3 4 5 5 4 2 4 2 0 -2 -2 -3 -3 -2 -2 -2 -2 -3 -1 -0 0 1 1 2 0 -0 -1 -1 -2 -2 -3 -5 -5 -5 -5

GFSCGP_925_temp_060.txt.gz
Temp
15 15 15 16 15 17 16 17 17 17 17 17 15 15 16 16 12 12 11 11 11 11 14 14 15 14 13 13 12 12 11 10 10 11 11 12 13 13 13 13 13 14 14 12
15 14 16 16 15 17 17 17 16 15 16 16 15 15 16 14 14 14 15 14 13 13 10 10 13 13 12 12 11 11 10 10 10 10 10 11 12 11 12 12 12 12 12 12
14 17 15 16 15 16 15 15 15 16 16 14 14 14 14 15 14 14 13 15 14 14 14 9 9 10 11 10 11 10 9 9 10 10 10 10 10 9 9 9 10 10 11 11
14 15 16 15 15 16 15 14 15 16 16 14 15 14 16 17 16 14 15 13 14 14 13 11 9 8 9 11 11 10 10 8 9 10 9 11 10 7 8 9 9 9 10 10
16 14 15 15 15 15 16 14 14 16 14 14 13 15 17 15 16 17 17 16 15 14 12 11 9 10 9 8 10 9 9 8 9 9 9 10 9 9 9 8 8 8 9 9
15 15 15 16 15 15 13 15 13 11 12 13 13 14 18 15 17 18 18 16 14 13 10 9 10 10 9 8 8 9 8 8 8 9 9 9 9 9 7 6 7 7 8 8
15 14 15 15 15 15 16 16 15 13 11 15 12 13 19 17 16 16 18 17 15 13 9 7 6 6 6 6 6 7 7 6 7 8 8 8 9 9 9 8 7 7 7 7
15 16 14 14 17 15 14 15 13 13 12 13 11 12 14 14 15 15 13 13 13 11 9 6 5 6 5 6 6 6 7 6 7 8 8 8 8 8 7 7 8 8 9 8
13 14 14 14 16 17 14 14 16 16 3 9 16 14 15 14 13 13 13 12 11 10 9 6 5 6 5 5 5 6 6 6 7 8 7 7 7 7 7 7 6 7 8 8
16 14 13 14 15 14 15 13 14 11 12 10 14 14 15 18 17 15 14 13 11 9 8 5 4 5 6 6 6 6 6 6 7 7 7 7 7 7 7 6 6 7 7 7
14 14 13 13 12 12 13 13 13 12 11 11 10 18 12 16 16 17 16 14 12 10 8 5 3 5 6 6 6 6 6 6 6 7 6 6 6 6 6 6 6 6 7 6
13 13 11 12 12 11 14 14 13 13 11 9 10 18 15 14 13 13 15 15 13 10 7 4 3 4 4 4 5 5 5 6 7 6 5 5 6 5 5 4 5 6 6 5
13 13 9 12 12 11 12 12 14 12 10 12 12 18 12 13 15 14 13 13 11 9 7 4 2 2 2 3 3 4 5 5 6 6 5 4 5 5 4 3 4 5 5 5
14 11 12 15 14 12 11 11 12 15 13 15 14 18 18 17 16 15 13 11 11 8 6 4 2 2 3 3 3 3 4 5 5 5 4 4 4 4 3 4 4 5 5 5
13 10 11 13 13 12 12 12 12 14 16 14 17 16 18 18 15 16 14 14 11 9 6 5 4 3 3 3 3 3 4 4 4 4 3 3 5 4 3 3 4 4 4 4
12 11 10 11 11 12 12 12 12 13 15 15 16 16 19 16 15 14 14 15 12 9 8 7 5 4 3 3 3 3 3 3 3 3 3 2 3 2 2 2 2 2 2 2
11 11 10 13 12 11 11 11 13 13 14 15 14 16 17 16 14 16 14 12 11 11 10 8 6 6 5 4 4 3 3 2 2 2 2 3 2 2 1 2 1 2 2 2
9 10 11 13 11 12 14 14 14 14 14 14 15 16 16 16 15 13 14 13 11 11 10 8 7 7 6 5 5 4 3 2 2 1 2 2 1 1 1 1 1 0 1 1
9 9 11 12 13 14 13 11 12 12 14 15 14 15 16 16 12 13 12 10 12 11 9 9 10 9 7 6 5 4 2 1 1 0 -0 0 1 -0 -0 -1 -1 -1 -1 -0
8 9 10 10 12 12 13 12 11 12 13 14 13 14 14 12 12 15 11 9 8 6 6 6 8 8 6 5 4 2 1 0 -0 -0 -0 0 0 0 -1 -1 -1 -1 -0 -0
9 9 10 11 12 11 8 7 11 12 13 5 5 11 10 9 12 8 6 8 4 4 4 5 4 4 4 4 3 1 -0 -1 -0 1 0 0 0 -0 -0 -1 -1 -1 -1 -1
9 10 11 11 11 12 7 8 11 10 8 5 7 9 9 7 6 6 5 4 3 3 2 2 1 1 2 3 2 -0 -1 0 1 1 -0 -0 -1 -1 -1 -1 -3 -3 -2 -2
9 12 11 11 11 10 6 9 8 7 8 7 7 7 6 6 7 5 4 3 1 1 -0 0 0 -1 -0 1 2 -0 -0 0 0 0 -0 -1 -1 -2 -2 -3 -3 -3 -4 -4
6 6 7 7 8 8 7 6 6 6 6 6 6 6 5 7 5 5 2 1 -0 -3 -3 -1 -1 -2 -2 1 1 2 0 1 1 -0 -1 -1 -2 -3 -3 -3 -3 -3 -3 -2
6 6 6 6 7 6 5 4 6 5 5 5 5 5 5 5 4 3 -0 -3 -4 -4 -2 -1 -2 -3 -3 -0 0 0 1 1 -0 -1 -1 -2 -2 -2 -3 -3 -2 -2 -2 -2
3 6 7 7 7 7 6 3 3 4 4 4 5 4 3 2 3 0 -2 -3 -3 -4 -3 -3 -4 -5 -5 -3 -3 -2 -1 0 1 -1 -2 -2 -2 -3 -3 -3 -5 -5 -4 -4

GFSCGP_925_temp_063.txt.gz
Temp
14 15 16 16 15 17 15 17 18 16 16 17 15 15 16 15 14 13 14 14 14 13 15 15 16 16 15 14 14 13 13 12 12 10 10 11 12 12 13 14 15 15 15 15
14 15 15 15 14 16 16 16 16 15 15 16 15 15 17 15 17 17 18 17 16 16 13 12 14 15 15 14 13 13 13 12 11 11 11 11 12 12 13 13 13 13 14 14
14 17 14 15 14 15 14 15 15 17 16 14 13 13 13 15 15 16 15 16 15 16 17 14 10 12 12 12 13 13 12 12 11 10 10 11 10 11 11 11 12 13 13 13
14 15 15 14 15 15 15 14 15 16 16 15 14 15 14 15 17 15 15 15 15 16 14 13 10 10 11 13 12 12 12 11 11 10 10 11 10 9 10 11 11 12 12 12
16 13 14 15 15 14 15 13 14 15 14 13 13 14 16 15 16 16 18 16 16 14 13 13 10 12 13 11 11 11 11 10 10 9 10 10 9 10 11 10 10 10 10 10
15 14 14 15 14 15 12 13 12 10 12 13 14 15 21 15 17 18 17 17 16 13 12 10 12 12 11 11 10 9 9 9 9 9 9 10 9 9 10 9 8 9 8 8
14 14 14 14 14 14 15 15 14 13 11 15 11 14 21 16 15 17 18 19 16 13 12 10 8 7 8 8 7 7 7 7 7 8 8 9 9 9 10 10 9 8 8 7
15 15 13 13 16 14 13 15 14 13 12 14 11 12 16 15 14 14 14 14 13 12 11 10 8 7 7 7 6 6 6 6 6 7 8 8 9 9 9 9 9 9 9 10
13 14 14 13 15 16 13 14 16 16 3 10 14 14 15 13 14 13 13 12 11 11 10 9 7 7 7 6 6 6 6 6 6 7 7 8 8 8 8 8 8 8 8 9
15 14 13 13 15 14 15 14 14 11 12 10 14 14 18 19 17 16 14 14 12 11 10 8 6 6 6 7 6 6 6 6 5 7 6 8 8 7 7 7 8 7 7 7
14 14 12 13 12 12 13 13 13 12 11 11 11 17 13 17 16 16 15 14 13 11 10 9 6 6 6 6 6 5 5 6 5 6 6 7 7 6 6 7 7 7 7 7
13 13 12 12 12 11 12 13 12 12 11 9 10 18 15 15 15 13 13 15 14 12 10 7 5 5 5 5 5 5 5 5 5 6 6 7 8 6 5 5 6 6 6 5
13 12 8 12 12 11 11 11 13 11 10 11 13 18 12 13 15 14 13 13 11 11 10 7 4 4 4 4 5 5 5 5 5 5 6 6 7 6 5 5 5 5 4 4
14 12 12 14 14 11 11 10 11 14 11 15 13 18 18 17 17 14 14 12 11 10 8 7 5 4 3 4 4 4 4 5 5 5 5 5 5 5 5 5 5 4 4 4
14 12 11 13 13 12 12 12 12 14 15 15 17 16 18 17 15 17 16 13 12 11 8 7 6 5 3 3 3 4 4 4 4 4 4 4 5 5 4 4 3 3 2 3
12 12 11 11 12 12 12 12 11 13 14 15 16 16 19 18 15 14 14 16 16 13 10 10 8 5 4 4 4 3 3 3 3 3 3 4 4 3 3 2 2 2 2 2
9 11 10 12 12 11 11 12 12 13 13 15 14 16 17 16 14 15 13 12 13 12 13 11 9 7 7 6 6 4 3 2 2 2 3 3 2 2 2 2 1 1 0 1
8 8 9 12 12 12 13 15 13 14 14 14 15 16 16 16 14 13 14 13 12 11 11 11 10 9 9 9 7 5 4 3 2 1 1 1 2 1 0 -0 -0 -1 -1 -1
9 9 10 11 12 13 12 11 11 11 13 14 14 14 15 15 13 13 14 11 13 12 10 9 10 10 10 9 7 5 3 2 1 0 0 0 1 0 -0 -1 -1 -2 -2 -2
8 9 10 10 11 12 13 12 10 11 13 13 13 14 14 12 11 14 11 10 9 7 5 5 7 7 7 7 5 4 2 0 -0 -0 -0 0 0 0 -0 -1 -1 -2 -2 -3
7 8 9 11 11 11 10 8 9 12 12 5 5 11 10 10 12 10 7 8 5 4 4 4 4 4 4 4 3 1 0 -1 0 0 0 -0 -0 0 -0 -1 -2 -2 -3 -2
8 9 10 10 10 11 8 9 11 11 7 7 8 9 8 7 7 6 5 4 3 2 2 2 2 1 1 2 2 -0 -1 0 0 0 -0 -1 -1 -1 -2 -2 -3 -3 -2 -4
8 9 9 9 10 9 7 10 8 6 5 7 7 8 7 6 6 6 4 3 1 -0 -0 -1 -0 -1 -1 1 2 -0 -0 -0 -0 -0 -1 -2 -2 -2 -2 -2 -3 -4 -4 -4
5 6 6 7 6 6 7 7 6 7 6 6 6 6 5 5 5 5 2 1 -0 -3 -3 -2 -2 -3 -3 -0 0 1 -1 -0 -1 -2 -2 -2 -2 -3 -3 -3 -3 -3 -4 -4
3 4 4 5 7 8 7 4 4 4 4 5 5 4 4 4 5 3 -0 -2 -3 -4 -3 -2 -4 -5 -5 -3 -2 -2 -1 -1 -1 -2 -3 -3 -3 -3 -3 -3 -3 -3 -3 -2
2 5 6 7 6 7 7 3 2 3 3 3 4 4 1 1 2 -1 -2 -3 -3 -4 -4 -5 -6 -6 -6 -5 -4 -2 -1 -0 -1 -2 -3 -3 -3 -3 -3 -3 -4 -3 -3 -3

GFSCGP_925_temp_069.txt.gz
Temp
22 23 23 25 26 26 25 25 25 27 23 22 24 25 26 27 27 27 28 27 27 28 28 27 25 23 21 20 19 19 18 16 16 15 15 15 15 15 14 14 14 15 15 15
21 22 25 24 24 23 23 24 25 26 23 21 24 24 26 26 27 27 27 28 28 29 29 28 26 23 21 20 19 18 18 16 16 15 15 15 15 14 13 12 13 15 15 15
22 24 23 22 21 22 23 23 25 25 22 22 21 23 26 27 27 26 27 27 27 28 29 29 27 23 21 19 19 18 17 17 16 15 15 14 14 13 11 10 12 14 14 14
22 24 21 21 22 22 23 25 23 23 22 23 22 24 27 28 28 28 27 27 28 28 28 27 27 25 22 20 18 17 17 16 16 15 15 14 13 12 11 10 11 13 14 13
23 20 20 21 22 22 22 20 21 21 21 22 23 21 25 27 26 27 28 28 28 27 27 27 26 24 23 20 18 17 16 16 15 14 14 14 12 13 14 12 10 12 13 13
21 17 20 22 18 21 19 20 20 20 21 21 24 24 26 27 28 29 28 28 28 27 26 25 24 22 21 19 17 16 16 15 15 14 13 13 12 13 14 11 8 10 12 11
20 19 18 18 18 18 20 21 21 21 19 21 22 22 25 26 27 26 27 26 28 24 24 24 22 19 18 17 15 15 14 15 14 13 13 13 12 13 13 11 9 9 11 10
20 20 19 18 20 20 18 21 21 19 21 23 16 20 25 26 26 24 24 24 24 23 22 21 22 20 18 15 14 14 13 14 14 13 12 12 12 12 12 11 9 9 11 10
21 21 19 19 20 22 19 18 22 20 16 18 22 24 26 24 23 24 25 25 24 24 23 21 21 20 18 15 14 13 13 12 13 13 12 11 11 12 12 10 9 8 11 10
21 19 18 16 17 18 19 21 18 19 17 18 21 22 24 25 26 26 24 24 24 23 22 21 20 19 16 15 13 12 12 12 12 12 11 11 11 11 11 10 9 8 9 9
19 18 16 16 17 19 18 18 18 20 20 19 20 22 26 26 24 24 24 22 21 20 20 20 20 17 15 13 12 12 11 11 11 11 10 10 10 10 9 9 8 8 8 8
18 18 17 18 20 19 20 20 20 19 18 19 19 20 25 24 22 21 22 22 20 19 19 19 19 16 14 13 12 12 11 11 10 10 9 9 9 9 8 8 7 6 8 8
13 15 13 15 17 15 16 19 18 20 18 16 17 19 23 23 22 22 21 21 21 19 21 19 17 17 16 15 13 12 11 10 10 9 8 8 8 8 7 7 6 6 7 7
12 11 13 16 19 19 16 17 18 17 16 17 18 19 21 22 23 23 21 22 23 22 22 21 20 18 17 15 14 13 12 10 9 8 8 8 8 7 7 6 5 6 7 7
12 10 11 13 15 16 17 17 17 17 17 16 18 19 21 22 22 23 24 23 23 23 22 22 20 19 19 16 14 13 12 11 10 8 8 8 7 7 6 6 5 5 5 6
11 10 12 11 13 14 13 15 15 16 17 17 19 19 22 22 22 22 22 22 22 22 21 21 21 20 17 17 15 15 13 12 10 8 7 7 7 6 6 5 4 4 4 4
8 9 10 11 13 10 10 12 15 16 17 18 17 19 20 20 20 20 20 21 20 20 20 20 20 19 18 15 14 14 13 12 10 8 7 6 6 5 4 4 3 3 3 3
8 8 8 10 10 10 14 16 16 16 16 17 17 18 18 18 19 19 20 19 19 19 19 18 18 18 16 13 12 11 11 11 9 6 5 5 5 4 3 3 2 2 2 2
11 9 9 9 10 12 14 16 15 16 16 17 17 17 18 18 18 18 19 19 18 18 16 12 11 10 9 9 8 8 7 7 6 4 4 3 3 2 2 1 1 1 1 0
9 10 9 10 9 10 15 17 18 15 12 9 10 11 12 14 14 17 14 12 12 11 10 8 7 7 6 6 5 5 5 4 3 3 3 2 2 2 1 1 0 0 -0 -1
8 8 8 9 9 10 12 10 12 11 11 7 7 9 10 11 12 12 11 11 10 8 6 6 5 4 3 2 2 2 2 2 2 2 2 1 1 1 0 -0 -1 -1 -2 -2
10 9 9 10 9 9 11 10 9 8 10 8 7 8 7 8 8 9 10 9 8 6 4 2 2 2 1 1 1 1 1 0 0 0 0 -0 -0 -1 -1 -1 -2 -2 -2 -3
8 10 10 10 11 11 12 10 11 10 9 8 7 7 7 7 7 7 7 7 5 3 1 -0 -1 -1 -1 -1 -0 -0 -2 -1 -1 -1 -2 -2 -2 -2 -2 -2 -3 -4 -4 -4
10 11 9 9 10 11 11 11 10 9 8 8 7 7 6 6 6 5 5 3 2 1 -1 -1 -1 -2 -3 -3 -2 -2 -2 -2 -2 -3 -3 -3 -3 -4 -3 -3 -4 -4 -4 -4
9 9 9 8 9 10 9 10 9 8 7 6 6 5 5 5 4 4 4 2 0 -1 -2 -3 -3 -4 -5 -4 -4 -3 -3 -2 -3 -3 -3 -3 -3 -3 -4 -4 -4 -4 -4 -4
8 8 8 8 10 10 10 10 8 6 7 7 5 5 4 3 3 3 1 -0 -1 -2 -3 -4 -5 -5 -6 -5 -4 -3 -3 -2 -3 -3 -3 -3 -3 -3 -3 -3 -4 -3 -3 -4

GFSCGP_925_temp_072.txt.gz
Temp
21 20 19 21 22 23 24 23 22 24 21 22 20 20 22 23 22 22 22 22 21 22 24 27 26 25 24 22 21 21 20 18 17 17 17 17 17 17 17 17 17 17 17 16
19 18 22 23 23 23 23 22 21 22 20 21 20 20 21 22 22 23 22 22 22 23 22 24 26 25 23 22 22 21 19 18 17 16 16 16 16 16 16 16 16 16 16 15
19 22 22 22 21 21 21 21 21 21 21 19 19 18 19 22 22 23 22 23 22 22 22 23 22 24 23 22 21 20 19 18 16 16 15 15 15 15 15 15 14 14 14 14
20 21 22 20 21 20 20 21 21 21 20 18 22 16 21 22 23 23 22 20 20 21 22 22 23 22 22 22 21 20 19 18 17 16 15 15 15 14 14 14 13 13 12 13
20 19 19 19 20 21 20 20 21 21 19 18 19 16 19 21 23 23 24 22 22 22 23 23 20 24 23 21 20 19 18 18 17 16 15 15 14 14 14 13 13 12 10 11
19 18 20 20 17 19 19 20 20 20 18 15 19 18 19 21 24 26 26 26 26 24 22 22 22 22 23 22 20 19 18 17 17 16 15 15 14 14 13 13 12 11 9 10
18 18 18 18 17 18 19 19 16 15 14 15 20 19 21 23 24 24 24 22 22 23 22 21 20 18 19 20 19 18 17 17 16 16 15 14 14 13 13 13 12 11 8 9
17 17 16 16 18 17 16 18 15 14 15 16 16 16 18 23 24 24 23 20 19 21 18 18 19 18 18 18 17 16 16 15 15 15 14 14 14 13 12 13 12 12 12 11
18 19 18 17 19 19 17 16 19 16 9 12 16 19 21 21 22 22 20 20 19 19 18 18 17 19 18 16 15 15 14 14 14 14 14 13 13 13 12 13 12 11 11 11
19 17 17 15 17 17 17 18 16 14 13 13 16 17 19 20 22 21 20 19 18 17 16 16 17 17 17 16 14 14 13 13 13 14 13 13 12 12 12 12 12 11 10 10
18 16 14 15 15 16 15 16 17 17 15 13 15 17 22 20 20 19 19 19 18 17 16 15 14 15 15 14 13 13 13 12 12 12 13 12 12 11 11 11 11 10 10 9
17 16 13 15 17 15 17 17 17 14 15 13 14 18 21 19 20 20 19 19 19 18 16 15 15 15 15 14 13 12 12 12 12 12 11 11 11 10 10 10 10 10 9 8
14 14 10 13 16 15 15 16 17 17 14 15 14 17 19 19 20 20 21 20 18 18 17 16 14 13 14 15 14 14 13 13 12 12 11 11 10 10 10 10 10 9 8 8
13 11 12 13 16 15 14 13 15 16 13 15 15 17 19 19 18 19 18 17 16 17 17 16 15 13 16 17 16 15 15 14 13 12 11 10 10 9 9 9 9 8 7 7
10 10 11 12 12 12 12 12 13 13 13 15 16 16 18 19 18 18 19 18 18 18 18 17 17 16 17 17 16 15 15 15 14 12 10 11 11 9 8 8 7 7 6 6
9 9 10 9 11 12 12 12 13 13 14 14 15 15 18 18 18 18 18 18 17 17 17 17 16 16 15 17 17 17 16 16 14 12 11 11 9 8 8 7 7 6 5 5
8 9 9 9 10 9 9 10 12 13 14 14 14 16 17 16 17 17 17 17 17 17 17 15 15 15 15 14 15 15 14 14 13 12 12 11 9 8 7 7 6 6 5 4
6 7 8 7 6 8 12 14 14 14 14 14 15 15 15 15 14 15 15 15 14 14 13 11 9 9 10 10 10 9 10 10 10 10 10 9 7 7 7 6 5 5 4 3
9 7 6 4 3 8 10 12 13 13 12 14 10 10 10 10 10 13 11 10 10 9 8 8 8 7 7 7 6 6 7 6 6 7 7 6 6 5 5 4 4 3 2 1
8 9 7 3 5 3 11 13 11 12 11 8 8 8 8 8 8 10 8 9 8 8 7 6 5 5 5 4 4 3 3 4 4 4 4 4 3 3 3 3 2 2 1 1
6 7 7 7 7 7 9 10 10 9 9 5 6 8 7 7 10 9 8 8 8 7 6 5 4 3 2 2 2 2 2 2 2 2 2 2 2 2 1 1 0 0 -0 -1
6 5 5 7 7 7 9 9 9 8 8 8 7 7 7 7 7 7 7 6 6 4 4 3 1 1 1 0 0 1 0 -0 0 0 0 0 0 -0 -0 -0 -1 -1 -2 -2
6 6 4 6 5 8 10 10 9 9 7 7 7 6 7 6 6 5 6 4 3 4 2 0 -1 -1 -1 -1 -1 -1 -2 -2 -1 -1 -2 -2 -2 -2 -2 -2 -2 -3 -3 -4
7 8 6 5 8 8 8 8 8 8 7 6 5 5 5 5 5 4 3 2 2 1 -0 -1 -2 -2 -3 -3 -3 -3 -2 -2 -2 -2 -3 -3 -3 -3 -3 -3 -3 -3 -4 -4
3 4 3 4 7 7 7 7 7 7 6 5 4 4 4 4 4 2 2 1 -1 -0 -1 -2 -3 -4 -4 -4 -4 -3 -3 -3 -3 -3 -3 -4 -4 -4 -4 -4 -4 -4 -4 -3
5 5 5 5 6 7 7 7 7 6 5 4 4 3 3 2 2 1 0 1 -1 -2 -2 -3 -4 -5 -5 -5 -4 -3 -3 -3 -3 -4 -4 -3 -4 -4 -4 -4 -4 -4 -4 -4

GFSCGP_925_temp_075.txt.gz
Temp
20 17 16 17 17 20 21 21 20 21 20 20 18 17 18 18 18 17 17 16 17 18 21 24 24 25 24 24 23 22 21 20 19 18 18 18 17 17 18 18 18 17 17 16
17 17 18 19 20 20 21 21 20 20 20 20 19 18 18 18 19 21 20 18 17 18 18 21 23 24 24 24 23 22 21 20 19 18 17 17 16 17 17 18 17 17 17 16
16 19 18 20 21 21 21 20 20 20 19 19 17 16 17 19 18 19 18 18 18 18 18 18 20 22 23 22 23 22 21 20 19 18 17 16 16 16 16 17 17 17 17 17
17 19 20 19 19 19 20 19 20 20 18 17 18 15 16 20 21 21 20 18 18 17 18 18 19 20 21 22 23 22 21 20 19 18 16 16 15 15 16 15 16 17 17 16
17 18 18 18 19 19 18 19 20 20 18 17 17 15 15 17 19 19 20 19 18 17 18 18 18 21 22 22 22 21 21 19 18 18 16 16 15 14 15 15 14 15 15 15
17 17 19 18 16 19 17 18 17 16 15 14 15 16 16 19 21 22 24 23 20 21 20 20 21 22 21 21 20 20 20 19 19 17 16 16 14 14 14 14 14 14 14 14
17 17 17 17 16 16 18 16 14 14 12 14 15 16 17 19 21 23 24 22 20 21 19 18 19 19 19 19 19 19 19 19 18 17 16 15 15 15 14 14 14 13 13 12
15 15 16 16 17 16 15 16 13 13 13 14 14 16 19 18 22 22 22 19 17 16 15 15 15 17 17 17 17 17 17 17 17 17 16 16 15 15 14 14 14 13 13 13
15 16 16 15 17 17 15 15 16 15 6 10 14 15 18 18 20 18 16 16 15 15 14 14 14 16 16 17 16 16 16 16 16 16 16 15 15 14 14 14 13 13 13 12
17 17 14 15 17 16 16 16 15 12 12 12 14 15 17 18 19 18 17 17 16 15 14 13 13 15 15 15 15 15 14 14 15 14 15 15 15 14 14 13 13 13 12 12
16 15 14 15 14 14 14 15 16 15 12 12 12 15 15 18 18 19 19 17 18 17 15 14 13 15 15 16 15 15 14 14 14 14 14 14 14 14 13 13 12 12 12 11
15 14 11 14 15 15 16 15 15 13 13 12 12 17 17 16 19 17 18 18 18 17 14 12 13 14 15 15 15 15 15 15 14 14 14 14 13 13 12 12 12 11 11 11
13 12 8 12 14 14 15 15 16 16 11 13 11 17 17 16 15 15 17 16 16 15 14 14 12 12 14 15 16 15 16 16 15 14 13 13 13 12 12 12 11 11 10 10
12 11 11 11 12 13 12 11 12 13 9 13 14 15 17 16 15 15 14 16 16 15 14 14 13 13 15 17 16 16 16 17 16 14 14 14 14 13 12 11 11 10 10 9
11 10 10 11 11 12 11 11 11 12 12 12 14 14 15 16 16 16 15 15 15 15 14 14 14 13 16 16 17 17 17 16 16 14 13 14 14 12 11 10 10 9 9 8
9 7 10 9 10 11 10 10 11 12 12 13 14 13 16 16 15 14 14 14 14 15 14 13 13 12 12 13 12 13 13 13 13 13 13 13 12 11 10 10 9 8 8 8
9 8 8 5 9 9 7 10 10 11 12 13 13 14 15 14 13 11 11 11 10 10 9 9 8 8 8 8 9 10 10 10 10 10 11 11 10 10 9 9 8 7 7 6
7 8 8 1 2 3 9 11 12 11 12 12 12 12 8 9 9 9 9 9 9 9 8 8 7 6 6 6 7 6 7 8 8 8 8 9 9 9 8 7 7 6 6 5
7 5 2 2 -3 5 8 10 11 11 11 9 10 9 9 8 7 9 9 8 8 8 7 6 6 5 5 4 3 4 5 5 5 6 6 6 5 5 5 5 5 5 4 4
6 7 5 -3 2 2 7 10 11 11 7 8 9 9 8 8 8 9 9 7 6 7 7 6 5 4 4 4 3 2 3 3 3 3 3 4 4 3 3 3 3 3 2 2
5 6 7 6 6 4 6 7 10 6 8 3 6 8 8 7 8 10 7 6 7 7 7 5 4 3 2 2 1 1 1 1 1 1 2 2 2 2 1 1 1 1 1 0
4 3 3 2 5 5 7 7 8 7 7 6 8 6 6 6 6 5 5 4 4 4 5 4 2 1 1 1 -0 -1 -0 0 0 -0 -0 1 1 0 0 -0 0 -0 -1 -2
4 5 3 5 5 7 8 8 8 6 6 7 6 5 6 5 5 5 4 3 2 3 3 2 0 -0 -0 -1 -2 -2 -1 -1 -1 -1 -1 -1 -1 -1 -1 -1 -1 -2 -3 -3
5 6 4 4 6 5 6 7 8 7 6 6 5 4 5 4 4 3 2 2 1 2 1 0 -1 -2 -2 -2 -3 -3 -2 -2 -3 -2 -2 -2 -2 -3 -3 -2 -2 -3 -3 -4
2 3 0 1 5 6 6 6 6 6 7 5 4 4 4 3 3 2 1 -0 0 0 -1 -2 -3 -4 -4 -4 -4 -5 -4 -3 -3 -3 -4 -4 -4 -4 -4 -3 -3 -3 -3 -3
2 4 4 2 5 5 5 5 5 5 5 4 3 3 3 2 2 1 -1 0 0 -2 -3 -4 -5 -5 -5 -5 -5 -5 -5 -4 -4 -4 -4 -4 -4 -4 -4 -4 -4 -4 -4 -4